Aérodrome :
LOGIN :

S'inscrire | Disclaimer

   EN    FR    IT 

 










Légende :    VFR   VFR Marginal   IFR   IFR Intensif   IFR Très Intensif
Visi : 
Plafond : 
>= 8 km
>= 3000ft
5 à 8 km
1000 à 3000 ft
1500m à 5 km
500 à 1000 ft
800 à 1500m
200 à 500 ft
< 800m
< 200 ft
Symboles :   Orages  Brouillard  Fortes neiges  Fortes précipitations  Vent > 20 kt
SIGMETs :   Divers  Orages  Givrage  Turbulence  Onde Orograph.  Cendres Volcan.






- Altitude de l'aérodrome : 355 ft
- Code IATA : VBS


LIPO - Montichiari - Brescia

DERNIER METAR :
  • 011050Z AUTO 04005KT //// // OVC033/// 05/M01 Q1016

METARs EXPIRÉS :
  • 011020Z AUTO 04005KT //// // OVC031/// 05/M00 Q1016
  • 010950Z AUTO 07003KT //// // OVC031/// 05/M01 Q1017
  • 010920Z AUTO 09006KT //// // OVC027/// 05/M01 Q1017
  • 010850Z AUTO 11005KT //// // OVC027/// 04/M01 Q1018
  • 010820Z AUTO 10005KT //// // OVC038/// 05/M00 Q1018

TAF TAF LIPO
Valide du 01 à 06h jusqu'au 02 à 06h UTC


010500Z 0106/0206 VRB05KT 6000 SCT030
TEMPO 0106/0108 3000 BR
BECMG 0108/0110 BKN014
BECMG 0120/0122 4000 RA



MET'MAP, la Météo Aéronautique d'un coup d'oeil ! - Copyright ORBIFLY Décembre 2007 - Disclaimer

ORBIFLY MET'MAP TEAM :

Programmation & Développement : Alexandra Zaïnal
Sur une idée originale de : Baudouin d'Aumeries
Assistance à la programmation : Marc-Olivier Méhu
Soutien technique & logistique : Manuel Goepfert

Contact : metmap@orbifly.com




SOURCES & CREDITS :

   NOAA